ZHONGXING-10

Last updated on Wed Jul 02 2025 00:02:45 GMT+0000 (Coordinated Universal Time)

1 37677U 11026A 25182.63926650 -.00000315 00000+0 00000+0 0 9993 2 37677 0.1404 88.9342 0003738 53.0317 114.3322 1.00122491 51489
UTC large
Height (km)
Speed (km/s)
/
Latitude / Longitude
Inclination (degrees)
Orbital Period (minutes)
Azimuth
Elevation
Range (km)
Doppler Factor

Next 0 passes for location: London (51.5072 / 0.1276)

Sorry there are no passes over London.